Location: Maccacari
(45.1333°N, 11.1333°E)
Time: 15:14:41
(UTC+00:00)

S-56A Canister/Altair - Pass Details

Date: 27 January 2021
Orbit: 631 x 2501 km, 38.9° (Epoch: 01 March)

Event Time Altitude Azimuth Distance (km) Brightness Sun altitude
Rises 05:32:53 0° 267° (W) 2,961 - -12.1°
Reaches altitude 10° 05:35:32 10° 249° (WSW) 2,141 - -11.7°
Exits shadow 05:35:33 10° 249° (WSW) 2,138 9.3 -11.7°
Maximum altitude 05:39:06 20° 201° (SSW) 1,724 9.3 -11.1°
Drops below altitude 10° 05:43:22 10° 155° (SSE) 2,631 10.9 -10.3°
Sets 05:47:05 0° 141° (SE) 3,890 12.2 -9.7°
